1315785630381,2.22152
1315785690381,2.23252
1315785750381,2.24462
1315785810381,2.23640
1315785870381,2.24795
1315785930381,2.25756
1315785990381,2.24922
1315786050381,2.23269
1315786110381,2.23331
1315786170381,2.23680
1315786230381,2.25335
1315786290381,2.25218
1315786350381,2.25040
1315786410381,2.24676
1315786470381,2.24499
1315786530381,2.26394
1315786590381,2.24611
1315786650381,2.23048
1315786710381,2.23942
1315786770381,2.25961
1315786830381,2.23405
1315786890381,2.16637
1315786950381,2.23437
1315787010381,2.23937
1315787070381,2.24346
1315787130381,2.24388
1315787190381,2.25839
1315787250381,2.26047
1315787310381,2.24998
1315787370381,2.25075
1315787430381,2.26024
1315787490381,2.23961
1315787550381,2.24040
1315787610381,2.24020
1315787670381,2.24619
1315787730381,2.28138
1315787790381,2.24341
1315787850381,2.25713
1315787910381,2.25319
1315787970381,2.26324
1315788030381,2.25724
1315788090381,2.24495
1315788150381,2.26663
1315788210381,2.25493
1315788270381,2.26081
1315788330381,2.25943
1315788390381,2.25252
1315788450381,2.19374
1315788510381,2.25547
1315788570381,2.24672
1315788630381,2.24336
1315788690381,2.26272
1315788750381,2.24066
1315788810381,2.26206
1315788870381,2.26917
1315788930381,2.25560
1315788990381,2.24528
1315789050381,2.24583
1315789110381,2.25007
1315789170381,2.24793
1315789230393,2.25561
1315789290393,2.23349
1315789350393,2.25466
1315789410393,2.25346
1315789470393,2.25777
1315789530393,2.25523
1315789590393,2.23988
1315789650393,2.25269
1315789710393,2.25825
1315789770393,2.25962
1315789830393,2.26144
1315789890393,2.25988
1315789950393,2.24283
1315790010393,2.24663
1315790070393,2.25838
1315790130393,2.26078
1315790190393,2.25638
1315790250393,2.23827
1315790310393,2.25439
1315790370393,2.25640
1315790430393,2.25566
1315790490393,2.25037
1315790550393,2.25873
1315790610393,2.24147
1315790670393,2.23819
1315790730393,2.24864
1315790790393,2.25147
1315790850393,2.25690
1315790910393,2.25296
1315790970393,2.26505
1315791030393,2.24614
1315791090393,2.24362
1315791150393,2.25213
1315791210393,2.26933
1315791270393,2.24829
1315791330393,2.24792
1315791390393,2.25017
1315791450393,2.26325
1315791510393,2.26116
1315791570393,2.24824
1315791630393,2.23359
1315791690393,2.25135
1315791750393,2.27242
1315791810393,2.26028
1315791870393,2.23831
1315791930393,2.24685
1315791990393,2.25295
1315792050393,2.25479
1315792110393,2.25978
1315792170393,2.26683
1315792230393,2.26979
1315792290393,2.26436
1315792350393,2.25584
1315792410393,2.28129
1315792470393,2.25763
1315792530393,2.27642
1315792590393,2.25037
1315792650393,2.25728
1315792710393,2.24945
1315792770393,2.25691
1315792830406,2.26117
1315792890406,2.26776
1315792950406,2.25839
1315793010406,2.26286
1315793070406,2.25501
1315793130406,2.26674
1315793190406,2.26447
1315793250406,2.26750
1315793310406,2.25107
1315793370406,2.28702
1315793430406,2.28118
1315793490406,2.27271
1315793550406,2.27564
1315793610406,2.28319
1315793670406,2.20731
1315793730406,2.23260
1315793790406,2.27655
1315793850406,2.27239
1315793910406,2.26426
1315793970406,2.27078
1315794030406,2.27533
1315794090406,2.29181
1315794150406,2.28830
1315794210406,2.27510
1315794270406,2.29316
1315794330406,2.29491
1315794390406,2.27502
1315794450406,2.28518
1315794510406,2.27319
1315794570406,2.30021
1315794630406,2.30627
1315794690406,2.29565
1315794750406,2.29882
1315794810406,2.30109
1315794870406,2.26878
1315794930406,2.28956
1315794990406,2.28470
1315795050406,2.30150
1315795110406,2.30240
1315795170406,2.30718
1315795230406,2.30595
1315795290406,2.32134
1315795350406,2.30832
1315795410406,2.31584
1315795470406,2.30120
1315795530406,2.28275
1315795590406,2.30653
1315795650406,2.30816
1315795710406,2.31734
1315795770406,2.29776
1315795830406,2.30078
1315795890406,2.30971
1315795950406,2.30609
1315796010406,2.31117
1315796070406,2.30032
1315796130406,2.31267
1315796190406,2.30361
1315796250406,2.28747
1315796310406,2.31466
1315796370406,2.28860
1315796430418,2.30460
1315796490418,2.29769
1315796550418,2.30660
1315796610418,2.30004
1315796670418,2.28639
1315796730418,2.30359
1315796790418,2.30138
1315796850418,2.29586
1315796910418,2.30240
1315796970418,2.30263
1315797030418,2.29786
1315797090418,2.28740
1315797150418,2.27749
1315797210418,2.30827
1315797270418,2.29551
1315797330418,2.30381
1315797390418,2.30401
1315797450418,2.28376
1315797510418,2.30604
1315797570418,2.28139
1315797630418,2.29728
1315797690418,2.30750
1315797750418,2.28474
1315797810418,2.28623
1315797870418,2.28457
1315797930418,2.27546
1315797990418,2.27972
1315798050418,2.30610
1315798110418,2.29513
1315798170418,2.30612
1315798230418,2.32231
1315798290418,2.29811
1315798350418,2.30465
1315798410418,2.30653
1315798470418,2.28655
1315798530418,2.32000
1315798590418,2.31085
1315798650418,2.29700
1315798710418,2.28415
1315798770418,2.31231
1315798830418,2.30678
1315798890418,2.31701
1315798950418,2.30710
1315799010418,2.33435
1315799070418,2.32432
1315799130418,2.31544
1315799190418,2.29519
1315799250418,2.31364
1315799310418,2.29869
1315799370418,2.31640
1315799430418,2.31055
1315799490418,2.29504
1315799550418,2.29984
1315799610418,2.29469
1315799670418,2.31001
1315799730418,2.29420
1315799790418,2.29329
1315799850418,2.29507
1315799910418,2.29235
1315799970418,2.29243
1315800030430,2.29079
1315800090430,2.29543
1315800150430,2.29984
1315800210430,2.28954
1315800270430,2.29775
1315800330430,2.29193
1315800390430,2.27504
1315800450430,2.26519
1315800510430,2.28903
1315800570430,2.27510
1315800630430,2.27201
1315800690430,2.27383
1315800750430,2.26058
1315800810430,2.27193
1315800870430,2.27988
1315800930430,2.26682
1315800990430,2.28138
1315801050430,2.28216
1315801110430,2.24968
1315801170430,2.27596
1315801230430,2.24860
1315801290430,2.29004
1315801350430,2.27668
1315801410430,2.26444
1315801470430,2.28860
1315801530430,2.27450
1315801590430,2.27134
1315801650430,2.26752
1315801710430,2.27980
1315801770430,2.27902
1315801830430,2.30091
1315801890430,2.27246
1315801950430,2.26348
1315802010430,2.27169
1315802070430,2.27665
1315802130430,2.26419
1315802190430,2.25627
1315802250430,2.28548
1315802310430,2.27457
1315802370430,2.27074
1315802430430,2.27423
1315802490430,2.27490
1315802550430,2.26880
1315802610430,2.26379
1315802670430,2.24972
1315802730430,2.27348
1315802790430,2.27189
1315802850430,2.24914
1315802910430,2.25825
1315802970430,2.25568
1315803030430,2.26507
1315803090430,2.25209
1315803150430,2.25078
1315803210430,2.26401
1315803270430,2.27666
1315803330430,2.25091
1315803390430,2.24942
1315803450430,2.27267
1315803510430,2.24556
1315803570430,2.24244
1315803630442,2.25140
1315803690442,2.24042
1315803750442,2.25844
1315803810442,2.25180
1315803870442,2.24412
1315803930442,2.25024
1315803990442,2.25184
1315804050442,2.25607
1315804110442,2.25413
1315804170442,2.25126
1315804230442,2.24103
1315804290442,2.24062
1315804350442,2.22909
1315804410442,2.24807
1315804470442,2.27439
1315804530442,2.24719
1315804590442,2.24578
1315804650442,2.24093
1315804710442,2.23012
1315804770442,2.22347
1315804830442,2.24423
1315804890442,2.23319
1315804950442,2.25229
1315805010442,2.24497
1315805070442,2.22751
1315805130442,2.24094
1315805190442,2.22201
1315805250442,2.24086
1315805310442,2.22294
1315805370442,2.23313
1315805430442,2.23547
1315805490442,2.23301
1315805550442,2.23177
1315805610442,2.22621
1315805670442,2.21572
1315805730442,2.24546
1315805790442,2.22246
1315805850442,2.23699
1315805910442,2.25504
1315805970442,2.25745
1315806030442,2.22060
1315806090442,2.24715
1315806150442,2.26007
1315806210442,2.23579
1315806270442,2.26154
1315806330442,2.25423
1315806390442,2.24558
1315806450442,2.25995
1315806510442,2.25952
1315806570442,2.24359
1315806630442,2.25131
1315806690442,2.27389
1315806750442,2.26678
1315806810442,2.25639
1315806870442,2.27254
1315806930442,2.28128
1315806990442,2.28454
1315807050442,2.28561
1315807110442,2.29489
1315807170442,2.28384
1315807230454,2.29988
1315807290454,2.29764
1315807350454,2.31698
1315807410454,2.30799
1315807470454,2.32141
1315807530454,2.33679
1315807590454,2.31465
1315807650454,2.29881
1315807710454,2.33658
1315807770454,2.31338
1315807830454,2.34254
1315807890454,2.32547
1315807950454,2.33817
1315808010454,2.31487
1315808070454,2.32145
1315808130454,2.33096
1315808190454,2.29322
1315808250454,2.31591
1315808310454,2.30030
1315808370454,2.31880
1315808430454,2.30467
1315808490454,2.31396
1315808550454,2.32302
1315808610454,2.29753
1315808670454,2.29730
1315808730454,2.31202
1315808790454,2.32527
1315808850454,2.30862
1315808910454,2.30910
1315808970454,2.32236
1315809030454,2.31860
1315809090454,2.31512
1315809150454,2.31584
1315809210454,2.31412
1315809270454,2.30889
1315809330454,2.32574
1315809390454,2.31909
1315809450454,2.29916
1315820250490,2.34334
1315820310490,2.35738
1315820370490,2.33120
1315820430490,2.33365
1315820490490,2.34580
1315820550490,2.34136
1315820610490,2.34629
1315820670490,2.33176
1315820730490,2.33554
1315820790490,2.33548
1315820850490,2.34215
1315820910490,2.35072
1315820970490,2.33236
1315821030490,2.34850
1315821090490,2.34355
1315821150490,2.34709
1315821210490,2.33971
1315821270490,2.32922
1315821330490,2.35481
1315821390490,2.33316
1315821450490,2.34623
1315821510490,2.33681
1315821570490,2.34719
1315821630502,2.35053
1315821690502,2.34110
1315821750502,2.34718
1315821810502,2.33218
1315821870502,2.33263
1315821930503,2.34180
1315821990502,2.32680
1315822050502,2.33510
1315822110502,2.32390
1315822170502,2.32130
1315822230502,2.33086
1315822290502,2.33708
1315822350502,2.39331
1315822410502,2.33461
1315822470502,2.34322
1315822530502,2.33578
1315822590502,2.33083
1315822650502,2.34023
1315822710502,2.34792
1315822770502,2.34750
1315822830502,2.35120
1315822890502,2.34691
1315822950502,2.35333
1315823010502,2.34484
1315823070502,2.36178
1315823130502,2.34576
1315823190502,2.33553
1315823250503,2.34746
1315823310503,2.33893
1315823370502,2.34662
1315823430502,2.32926
1315823490502,2.34222
1315823550502,2.34895
1315823610502,2.35115
1315823670502,2.33341
1315823730502,2.37999
1315823790502,2.39972
1315823850502,2.33704
1315823910502,2.34393
1315823970502,2.33692
1315824030502,2.34777
1315824090502,2.33842
1315824150502,2.33144
1315824210502,2.33753
1315824270502,2.34715
1315824330502,2.35750
1315824390502,2.34361
1315824450502,2.33662
1315824510502,2.32518
1315824570502,2.33050
1315824630503,2.33822
1315824690502,2.35164
1315824750502,2.34193
1315824810502,2.35351
1315824870502,2.35703
1315824930502,2.34489
1315824990502,2.34333
1315825050502,2.36063
1315825110502,2.35466
1315825170502,2.34343
1315825230515,2.33712
1315825290515,2.31704
1315825350515,2.31793
1315825410515,2.33271
1315825470515,2.35164
1315825530515,2.33581
1315825590515,2.34501
1315825650515,2.33810
1315825710515,2.33547
1315825770515,2.36585
1315825830515,2.33345
1315825890515,2.34706
1315825950515,2.33640
1315826010515,2.34840
1315826070515,2.33109
1315826130515,2.34311
1315826190515,2.34610
1315826250515,2.32846
1315826310515,2.33468
1315826370515,2.34284
1315826430515,2.35245
1315826490515,2.34375
1315826550515,2.32560
1315826610515,2.34774
1315826670515,2.35428
1315826730515,2.35430
1315826790515,2.34948
1315826850515,2.33394
1315826910515,2.33290
1315826970515,2.34548
1315827030515,2.31761
1315827090515,2.32899
1315827150515,2.33909
1315827210515,2.34749
1315827270515,2.32314
1315827330515,2.34318
1315827390515,2.36021
1315827450515,2.33735
1315827510515,2.35293
1315827570515,2.32907
1315827630515,2.34047
1315827690515,2.34202
1315827750515,2.35198
1315827810515,2.31615
1315827870515,2.34681
1315827930515,2.33647
1315827990515,2.32309
1315828050515,2.41878
1315828110515,2.35389
1315828170515,2.34011
1315828230515,2.33285
1315828290515,2.33249
1315828350515,2.35995
1315828410515,2.34183
1315828470515,2.32719
1315828530515,2.34328
1315828590515,2.36042
1315828650515,2.34186
1315828710515,2.35947
1315828770515,2.33227
1315828830528,2.32877
1315828890528,2.35230
1315828950528,2.33046
1315829010528,2.35428
1315829070528,2.34827
1315829130528,2.34980
1315829190528,2.35753
1315829250528,2.34566
1315829310528,2.34352
1315829370528,2.33982
1315829430528,2.34009
1315829490528,2.34962
1315829550528,2.35058
1315829610528,2.35239
1315829670528,2.34114
1315829730528,2.35380
1315829790528,2.35259
1315829850528,2.34154
1315829910528,2.33976
1315829970528,2.35449
1315830030528,2.34730
1315830090528,2.35302
1315830150528,2.38681
1315830210528,2.35780
1315830270528,2.35967
1315830330528,2.39571
1315830390528,2.36936
1315830450528,2.39141
1315830510528,2.38136
1315830570528,2.38621
1315830630528,2.40112
1315830690528,2.39529
1315830750528,2.40771
1315830810528,2.38028
1315830870528,2.41077
1315830930528,2.41253
1315830990528,2.40419
1315831050528,2.42553
1315831110528,2.40560
1315831170528,2.41745
1315831230528,2.42584
1315831290528,2.44456
1315831350528,2.42884
1315831410528,2.40844
1315831470528,2.44183
1315831530528,2.42822
1315831590528,2.42696
1315831650528,2.42955
1315831710528,2.43816
1315831770528,2.42041
1315831830528,2.41077
1315831890528,2.43138
1315831950528,2.42669
1315832010528,2.40974
1315832070528,2.40671
1315832130528,2.40910
1315832190528,2.43222
1315832250528,2.43221
1315832310528,2.41041
1315832370528,2.42453
1315832430541,2.41193
1315832490541,2.42449
1315832550541,2.41824
1315832610541,2.41681
1315832670541,2.41969
1315832730541,2.41953
1315832790541,2.40872
1315832850541,2.41811
1315832910541,2.40709
1315832970541,2.42878
1315833030541,2.40359
1315833090541,2.39457
1315833630541,2.38960
1315833690541,2.38108
1315833750541,2.38117
1315833810541,2.38691
1315833870541,2.40209
1315833930541,2.39862
1315833990541,2.40836
1315834050541,2.40429
1315834110541,2.41255
1315834170541,2.39998
1315834230541,2.40031
1315834290541,2.40147
1315834350541,2.41002
1315834410541,2.38875
1315834470541,2.40122
1315834530541,2.35489
1315834590541,2.39221
1315834650541,2.41288
1315834710541,2.38092
1315834770541,2.38733
1315834830541,2.38992
1315834890541,2.39945
1315834950541,2.38640
1315835010541,2.39580
1315835070541,2.37687
1315835130541,2.37379
1315835190541,2.40567
1315835250541,2.37796
1315835310541,2.38809
1315835370541,2.39286
1315835430541,2.36919
1315835490541,2.36865
1315835550541,2.40255
1315835610541,2.37960
1315835670541,2.38611
1315835730541,2.38532
1315835790541,2.38393
1315835850541,2.35236
1315835910541,2.38177
1315835970541,2.38123
1315836030554,2.39850
1315836090554,2.37399
1315836150554,2.39534
1315836210554,2.38239
1315836270554,2.37866
1315836330554,2.39641
1315836390554,2.39403
1315836450554,2.39690
1315836510554,2.38236
1315836570554,2.39176
1315836630554,2.37416
1315836690554,2.40585
1315836750554,2.38370
1315836810554,2.38766
1315836870554,2.37103
1315836930554,2.38805
1315836990554,2.40353
1315837050554,2.41462
1315837110554,2.42879
1315837170554,2.43324
1315837230554,2.38175
1315837290554,2.38884
1315837350554,2.40098
1315837410554,2.39405
1315837470554,2.39309
1315837530554,2.41450
1315837590554,2.40175
1315837650554,2.38797
1315837710554,2.39143
1315837770554,2.38717
1315837830554,2.40843
1315837890554,2.41434
1315837950554,2.40443
1315838010554,2.40696
1315838070554,2.39079
1315838130554,2.41577
1315838190554,2.40697
1315838250554,2.40847
1315838310554,2.41460
1315838370554,2.41690
1315838430554,2.41073
1315838490554,2.39242
1315838550554,2.40546
1315838610554,2.38812
1315838670554,2.50775
1315838730554,2.41277
1315838790554,2.39227
1315838850554,2.42722
1315838910554,2.41368
1315838970554,2.40481
1315839030554,2.40831
1315839090554,2.39501
1315839150554,2.40343
1315839210554,2.39754
1315839270554,2.40644
1315839330554,2.41415
1315839390554,2.40873
1315839450554,2.39592
1315839510554,2.41739
1315839570554,2.40559
1315839630568,2.39044
1315839690568,2.40006
1315839750568,2.40386
1315839810568,2.40812
1315839870568,2.44063
1315839930568,2.41657
1315839990568,2.39950
1315840050568,2.39173
1315840110568,2.40996
1315840170568,2.40384
1315840230568,2.40450
1315840290568,2.40854
1315840350568,2.37769
1315840410568,2.40760
1315840470568,2.42340
1315840530568,2.41012
1315840590568,2.43210
1315840650568,2.38989
1315840710568,2.40353
1315840770568,2.40587
1315840830568,2.39600
1315840890568,2.42292
1315840950568,2.43109
1315841010568,2.40053
1315841070568,2.39721
1315841130568,2.39539
1315841190568,2.40143
1315841250568,2.41163
1315841310568,2.39614
1315841370568,2.40249
1315841430568,2.40733
1315841490568,2.41728
1315841550568,2.40387
1315841610568,2.43228
1315841670568,2.41346
1315841730568,2.42662
1315841790568,2.42976
1315841850568,2.43481
1315841910568,2.43236
1315841970568,2.41894
1315842030568,2.43237
1315842090568,2.43243
1315842150568,2.43071
1315842210568,2.42866
1315842270568,2.42193
1315842330568,2.42719
1315842390568,2.45408
1315842450568,2.44381
1315842510568,2.41543
1315842570568,2.41004
1315842630568,2.42686
1315842690568,2.44692
1315842750568,2.42673
1315842810568,2.42314
1315842870568,2.40139
1315842930568,2.41745
1315842990568,2.43010
1315843050568,2.42900
1315843110568,2.44924
1315843170568,2.43184
1315843230582,2.41645
1315843290582,2.44388
1315843350582,2.46678
1315843410582,2.42884
1315843470582,2.43440
1315843530582,2.41740
1315843590582,2.45125
1315843650582,2.43778
1315843710582,2.43656
1315843770582,2.45027
1315843830582,2.45112
1315843890582,2.44089
1315843950582,2.45398
1315844010582,2.46382
1315844070582,2.44658
1315844130582,2.45505
1315844190582,2.47772
1315844250582,2.46444
1315844310582,2.45796
1315844370582,2.47785
1315844430582,2.49081
1315844490582,2.45291
1315844550582,2.46613
1315844610582,2.47331
1315844670582,2.49368
1315844730582,2.47349
1315844790582,2.46905
1315844850582,2.47440
1315844910582,2.48922
1315844970582,2.48055
1315845030582,2.45618
1315845090582,2.47513
1315845150582,2.49642
1315845210582,2.47900
1315845270582,2.49243
1315845330582,2.48945
1315845390582,2.49285
1315845450582,2.50808
1315845510582,2.50969
1315845570582,2.48884
1315845630582,2.50328
1315845690582,2.49815
1315845750582,2.50078
1315845810582,2.51934
1315845870582,2.48401
1315845930582,2.49506
1315845990582,2.49227
1315846050582,2.52284
1315846110582,2.51568
1315846170582,2.50574
1315846230582,2.52348
1315846290582,2.50370
1315846350582,2.50154
1315846410582,2.53414
1315846470582,2.51338
1315846530582,2.50922
1315846590582,2.53215
1315846650582,2.54535
1315846710582,2.51955
1315846770582,2.54375
1315846830596,2.54291
1315846890596,2.49906
1315846950596,2.49968
1315847010596,2.53661
1315847070596,2.50582
1315847130596,2.50167
1315847190596,2.53217
1315847250596,2.53169
1315847310596,2.51187
1315847370596,2.51904
1315847430596,2.53237
1315847490596,2.50457
1315847550596,2.52554
1315847610596,2.52771
1315847670596,2.51678
1315847730596,2.50113
1315847790596,2.50766
1315847850596,2.52320
1315847910596,2.52680
1315847970596,2.50544
1315848030596,2.54053
1315848090596,2.49931
1315848150596,2.50553
1315848210596,2.49000
1315848270596,2.51804
1315848330596,2.50749
1315848390596,2.49919
1315848450596,2.52505
1315848510596,2.49625
1315848570596,2.52162
1315848630596,2.51113
1315848690596,2.52773
1315848750596,2.50021
1315848810596,2.54197
1315848870596,2.52660
1315848930596,2.50134
1315848990596,2.50329
1315849050596,2.49196
1315849110596,2.51212
1315849170596,2.49042
1315849230596,2.51523
1315849290596,2.48683
1315849350596,2.48668
1315849410596,2.49329
1315849470596,2.52870
1315849530596,2.48948
1315849590596,2.49565
1315849650596,2.47233
1315849710596,2.49250
1315849770596,2.49561
1315849830596,2.47898
1315849890596,2.50593
1315849950596,2.50133
1315850010596,2.45911
1315850070596,2.47246
1315850130596,2.47970
1315850190596,2.48651
1315850250596,2.47051
1315850310596,2.47973
1315850370596,2.49798
1315850430610,2.49638
1315850490610,2.45081
1315850550610,2.48276
1315850610610,2.47053
1315850670610,2.46665
1315850730610,2.46429
1315850790610,2.46352
1315850850610,2.43085
1315850910610,2.44550
1315850970610,2.47249
1315851030610,2.46524
1315851090610,2.46506
1315851150610,2.45696
1315851210610,2.47320
1315851270610,2.44894
1315851330610,2.44423
1315851390610,2.44851
1315851450610,2.44739
1315851510610,2.43720
1315851570610,2.45556
1315851630610,2.44811
1315851690610,2.44989
1315851750610,2.50536
1315851810610,2.44546
1315851870610,2.42504
1315851930610,2.42798
1315851990610,2.44458
1315852050610,2.46211
1315852110610,2.47045
1315852170610,2.47588
1315852230610,2.44442
1315852290610,2.41892
1315852350610,2.42536
1315852410610,2.43304
1315852470610,2.45238
1315852530610,2.45470
1315852590610,2.44132
1315852650610,2.44823
1315852710610,2.42478
1315852770610,2.44579
1315852830610,2.44417
1315852890610,2.43471
1315852950610,2.45502
1315853010610,2.45574
1315853070610,2.46249
1315853130610,2.45682
1315853190610,2.43017
1315853250610,2.44476
1315853310610,2.45659
1315853370610,2.46962
1315853430610,2.45522
1315853490610,2.45029
1315853550610,2.46690
1315853610610,2.43483
1315853670610,2.44936
1315853730610,2.44983
1315853790610,2.45322
1315853850610,2.44463
1315853910610,2.46023
1315853970610,2.45170
1315854030624,2.44974
1315854090624,2.46200
1315854150624,2.46015
1315854210624,2.46642
1315854270624,2.44779
1315854330624,2.43983
1315854390624,2.44398
1315854450624,2.34515
1315854510624,2.46328
1315854570624,2.44974
1315854630624,2.45177
1315854690624,2.44488
1315854750624,2.43597
1315854810624,2.46744
1315854870624,2.44493
1315854930624,2.44701
1315854990624,2.46224
1315855050624,2.45011
1315855110624,2.47452
1315855170624,2.46093
1315855230624,2.47431
1315855290624,2.48014
1315855350624,2.45873
1315855410624,2.47297
1315855470624,2.45358
1315855530624,2.45455
1315855590624,2.47763
1315855650624,2.45416
1315855710624,2.46713
1315855770624,2.46034
1315855830624,2.45674
1315855890624,2.46714
1315855950624,2.45985
1315856010624,2.45491
1315856070624,2.47832
1315856130624,2.45967
1315856190624,2.45672
1315856250624,2.45796
1315856310624,2.47927
1315856370624,2.47216
1315856430624,2.44944
1315856490624,2.46372
1315856550624,2.45966
1315856610624,2.45490
1315856670624,2.44387
1315856730624,2.46156
1315856790624,2.47838
1315856850624,2.46505
1315856910624,2.45083
1315856970624,2.46648
1315857030624,2.47355
1315857090624,2.47231
1315857150624,2.48720
1315857210624,2.46506
1315857270624,2.47609
1315857330624,2.46951
1315857390624,2.45970
1315857450624,2.47117
1315857510624,2.46466
1315857570624,2.45770
1315857630637,2.46564
1315857690637,2.46630
1315857750637,2.45560
1315857810637,2.46014
1315857870637,2.45727
1315857930637,2.45334
1315857990637,2.43289
1315858050637,2.43943
1315858110637,2.45226
1315858170637,2.45226
1315858230637,2.43751
1315858290637,2.44896
1315858350637,2.48314
1315858410637,2.44494
1315858470637,2.43893
1315858530637,2.43397
1315858590637,2.42729
1315858650637,2.42996
1315858710637,2.41034
1315858770637,2.44117
1315858830637,2.40690
1315858890637,2.61165
1315858950637,2.41436
1315859010637,2.42225
1315859070637,2.41808
1315859130637,2.43705
1315859190637,2.42061
1315859250637,2.40909
1315859310637,2.38956
1315859370637,2.40217
1315859430637,2.40114
1315859490637,2.40289
1315859550637,2.40950
1315859610637,2.41404
1315859670637,2.39905
1315859730637,2.39741
1315859790637,2.42514
1315859850637,2.39041
1315859910637,2.40547
1315859970637,2.40020
1315860030637,2.40178
1315860090637,2.42940
1315860150637,2.39152
1315860210637,2.41440
1315860270637,2.25139
1315860330637,2.42470
1315860390637,2.41222
1315860450637,2.40419
1315860510637,2.43290
1315860570637,2.43058
1315860630637,2.43699
1315860690637,2.43416
1315860750637,2.46212
1315860810637,2.47213
1315860870637,2.48998
1315860930637,2.49808
1315860990637,2.53937
1315861050637,2.52961
1315861110637,2.52665
1315861170637,2.63084
1315861230651,2.53532
1315861290651,2.52129
1315861350651,2.52234
1315861410651,2.51392
1315861470651,2.52710
1315861530651,2.50897
1315861590651,2.49223
1315861650651,2.49818
1315861710651,2.49768
1315861770651,2.47271
1315861830651,2.49055
1315861890651,2.49401
1315861950651,2.48560
1315862010651,2.47701
1315862070651,2.46166
1315862130651,2.48405
1315862190651,2.48565